This is the latest recevied weather packets stored in our database for station/object AE5HO. If no packets are shown the sender has not sent any weather packets the latest 10 day(s).
| Time | Temp. | Humidity | Pressure | Rain* | Wind** | Luminosity | Snow |
|---|---|---|---|---|---|---|---|
| 1778014570 | 31.67° C | 58% | 1004.4 hPa | 0 mm | - | 64 W/m² | - |
| 1778014267 | 31.67° C | 56% | 1004.4 hPa | 0 mm | - | 71 W/m² | - |
| 1778013964 | 31.67° C | 58% | 1004.3 hPa | 0 mm | - | 70 W/m² | - |
| 1778013662 | 32.22° C | 59% | 1004.2 hPa | 0 mm | - | 55 W/m² | - |
| 1778013358 | 31.67° C | 59% | 1004.3 hPa | 0 mm | - | 99 W/m² | - |
| 1778013055 | 31.67° C | 58% | 1004.2 hPa | 0 mm | - | 86 W/m² | - |
| 1778012751 | 32.22° C | 59% | 1004.5 hPa | 0 mm | - | 103 W/m² | - |
| 1778012447 | 32.22° C | 59% | 1004.8 hPa | 0 mm | - | 82 W/m² | - |
| 1778012144 | 31.67° C | 60% | 1004.6 hPa | 0 mm | - | 64 W/m² | - |
| 1778011842 | 31.67° C | 59% | 1004.7 hPa | 0 mm | - | 56 W/m² | - |
| 1778011539 | 31.11° C | 61% | 1004.8 hPa | 0 mm | - | 64 W/m² | - |
| 1778011236 | 31.11° C | 59% | 1004.9 hPa | 0 mm | - | 78 W/m² | - |
| 1778010932 | 31.11° C | 61% | 1004.7 hPa | 0 mm | - | 83 W/m² | - |
| 1778010630 | 31.11° C | 62% | 1004.5 hPa | 0 mm | - | 70 W/m² | - |
| 1778010327 | 30.56° C | 63% | 1004.8 hPa | 0 mm | - | 87 W/m² | - |
| 1778010022 | 30.56° C | 62% | 1004.8 hPa | 0 mm | - | 84 W/m² | - |
| 1778009720 | 30.56° C | 62% | 1004.7 hPa | 0 mm | - | 88 W/m² | - |
| 1778009417 | 30.56° C | 63% | 1004.9 hPa | 0 mm | - | 106 W/m² | - |
| 1778009115 | 30.56° C | 64% | 1005 hPa | 0 mm | - | 104 W/m² | - |
| 1778008813 | 30.56° C | 64% | 1004.8 hPa | 0 mm | - | 84 W/m² | - |
| 1778008511 | 30° C | 64% | 1005 hPa | 0 mm | - | 83 W/m² | - |
| 1778008209 | 30° C | 66% | 1004.8 hPa | 0 mm | - | 84 W/m² | - |
| 1778007903 | 29.44° C | 66% | 1004.6 hPa | 0 mm | - | 84 W/m² | - |
| 1778007599 | 29.44° C | 66% | 1004.7 hPa | 0 mm | - | 127 W/m² | - |
| 1778007296 | 29.44° C | 67% | 1004.8 hPa | 0 mm | - | 148 W/m² | - |
* Rain latest hour (hover to see other rain measurements)
** Current wind speed in m/s (hover to see current wind gust speed)